Wetterdaten: Freitag, 06.02.2015
Datum Zeit Temp. A. Feuchte A. Luftdruck Regen Wind Richtung Richtung Sonnenschein ET UV Solar Taupunkt Windchill Windben Empfang
06.02.2015 00:00 -2,4 C 64 % 1018,7 hPa 0,0 l/m 22,0 km/h (4 Bft) O-SO 105 0 min 0,000 mm 0,0 UV-I 0 W/m -8,3 C -13,7 C 32,0 km/h (5 Bft) 0,00 %
06.02.2015 00:15 -2,5 C 60 % 1018,5 hPa 0,0 l/m 19,1 km/h (3 Bft) O 91 0 min 0,000 mm 0,0 UV-I 0 W/m -9,2 C -12,4 C 24,1 km/h (4 Bft) 0,00 %
06.02.2015 00:30 -2,7 C 60 % 1019,0 hPa 0,0 l/m 19,1 km/h (3 Bft) O-SO 119 0 min 0,000 mm 0,0 UV-I 0 W/m -9,4 C -12,7 C 24,1 km/h (4 Bft) 0,00 %
06.02.2015 00:45 -2,8 C 60 % 1018,7 hPa 0,0 l/m 17,3 km/h (3 Bft) O 85 0 min 0,000 mm 0,0 UV-I 0 W/m -9,5 C -11,8 C 24,1 km/h (4 Bft) 0,00 %
06.02.2015 01:00 -2,9 C 61 % 1018,6 hPa 0,0 l/m 28,4 km/h (4 Bft) O 87 0 min 0,000 mm 0,0 UV-I 0 W/m -9,3 C -16,9 C 32,0 km/h (5 Bft) 0,00 %
06.02.2015 01:15 -3,0 C 61 % 1018,6 hPa 0,0 l/m 12,2 km/h (2 Bft) O-SO 112 0 min 0,000 mm 0,0 UV-I 0 W/m -9,4 C -8,6 C 15,8 km/h (3 Bft) 0,00 %
06.02.2015 01:30 -3,0 C 61 % 1018,8 hPa 0,0 l/m 18,4 km/h (3 Bft) O 94 0 min 0,000 mm 0,0 UV-I 0 W/m -9,4 C -12,7 C 28,1 km/h (4 Bft) 0,00 %
06.02.2015 01:45 -3,0 C 61 % 1019,0 hPa 0,0 l/m 14,4 km/h (3 Bft) O 93 0 min 0,000 mm 0,0 UV-I 0 W/m -9,4 C -10,2 C 19,8 km/h (3 Bft) 0,00 %
06.02.2015 02:00 -3,1 C 61 % 1019,3 hPa 0,0 l/m 22,0 km/h (4 Bft) O 82 0 min 0,000 mm 0,0 UV-I 0 W/m -9,5 C -14,6 C 28,1 km/h (4 Bft) 0,00 %
06.02.2015 02:15 -3,3 C 62 % 1019,1 hPa 0,0 l/m 14,8 km/h (3 Bft) O-NO 77 0 min 0,000 mm 0,0 UV-I 0 W/m -9,5 C -10,8 C 19,8 km/h (3 Bft) 0,00 %
06.02.2015 02:30 -3,4 C 62 % 1018,9 hPa 0,0 l/m 19,8 km/h (3 Bft) SO 140 0 min 0,000 mm 0,0 UV-I 0 W/m -9,6 C -13,9 C 28,1 km/h (4 Bft) 0,00 %
06.02.2015 02:45 -3,7 C 64 % 1018,7 hPa 0,0 l/m 10,4 km/h (2 Bft) O-SO 105 0 min 0,000 mm 0,0 UV-I 0 W/m -9,5 C -7,9 C 11,9 km/h (2 Bft) 0,00 %
06.02.2015 03:00 -4,0 C 65 % 1018,8 hPa 0,0 l/m 6,5 km/h (2 Bft) O-SO 118 0 min 0,000 mm 0,0 UV-I 0 W/m -9,6 C -4,1 C 7,9 km/h (2 Bft) 0,00 %
06.02.2015 03:15 -4,1 C 66 % 1018,5 hPa 0,0 l/m 9,7 km/h (2 Bft) O-SO 102 0 min 0,000 mm 0,0 UV-I 0 W/m -9,5 C -7,7 C 15,8 km/h (3 Bft) 0,00 %
06.02.2015 03:30 -4,2 C 67 % 1018,5 hPa 0,0 l/m 14,8 km/h (3 Bft) O 99 0 min 0,000 mm 0,0 UV-I 0 W/m -9,4 C -11,9 C 15,8 km/h (3 Bft) 0,00 %
06.02.2015 03:45 -4,1 C 67 % 1018,4 hPa 0,0 l/m 23,4 km/h (4 Bft) O-SO 111 0 min 0,000 mm 0,0 UV-I 0 W/m -9,3 C -16,6 C 28,1 km/h (4 Bft) 0,00 %
06.02.2015 04:00 -3,9 C 67 % 1018,9 hPa 0,0 l/m 11,9 km/h (2 Bft) O-SO 118 0 min 0,000 mm 0,0 UV-I 0 W/m -9,1 C -9,4 C 15,8 km/h (3 Bft) 0,00 %
06.02.2015 04:15 -3,7 C 66 % 1018,5 hPa 0,0 l/m 6,5 km/h (2 Bft) S 172 0 min 0,000 mm 0,0 UV-I 0 W/m -9,1 C -3,8 C 7,9 km/h (2 Bft) 0,00 %
06.02.2015 04:30 -3,7 C 67 % 1018,5 hPa 0,0 l/m 5,4 km/h (1 Bft) O 96 0 min 0,000 mm 0,0 UV-I 0 W/m -8,9 C -3,7 C 7,9 km/h (2 Bft) 0,00 %
06.02.2015 04:45 -3,7 C 67 % 1018,4 hPa 0,0 l/m 13,3 km/h (3 Bft) O-SO 119 0 min 0,000 mm 0,0 UV-I 0 W/m -8,9 C -10,3 C 19,8 km/h (3 Bft) 0,00 %
06.02.2015 05:00 -3,7 C 67 % 1018,3 hPa 0,0 l/m 15,5 km/h (3 Bft) O-SO 104 0 min 0,000 mm 0,0 UV-I 0 W/m -8,9 C -11,8 C 19,8 km/h (3 Bft) 0,00 %
06.02.2015 05:15 -3,6 C 67 % 1018,3 hPa 0,0 l/m 15,5 km/h (3 Bft) O-NO 72 0 min 0,000 mm 0,0 UV-I 0 W/m -8,8 C -11,7 C 15,8 km/h (3 Bft) 0,00 %
06.02.2015 05:30 -3,5 C 67 % 1018,6 hPa 0,0 l/m 10,4 km/h (2 Bft) O 96 0 min 0,000 mm 0,0 UV-I 0 W/m -8,7 C -7,7 C 15,8 km/h (3 Bft) 0,00 %
06.02.2015 05:45 -3,5 C 67 % 1018,8 hPa 0,0 l/m 6,5 km/h (2 Bft) O-SO 108 0 min 0,000 mm 0,0 UV-I 0 W/m -8,7 C -3,6 C 7,9 km/h (2 Bft) 0,00 %
06.02.2015 06:00 -3,5 C 67 % 1018,6 hPa 0,0 l/m 12,2 km/h (2 Bft) O-SO 121 0 min 0,000 mm 0,0 UV-I 0 W/m -8,7 C -9,2 C 19,8 km/h (3 Bft) 0,00 %
06.02.2015 06:15 -3,6 C 68 % 1018,6 hPa 0,0 l/m 5,4 km/h (1 Bft) O 92 0 min 0,000 mm 0,0 UV-I 0 W/m -8,6 C -3,6 C 7,9 km/h (2 Bft) 0,00 %
06.02.2015 06:30 -3,6 C 68 % 1018,8 hPa 0,0 l/m 12,2 km/h (2 Bft) O 99 0 min 0,000 mm 0,0 UV-I 0 W/m -8,6 C -9,3 C 19,8 km/h (3 Bft) 0,00 %
06.02.2015 06:45 -3,5 C 69 % 1018,9 hPa 0,0 l/m 10,8 km/h (2 Bft) O 83 0 min 0,000 mm 0,0 UV-I 0 W/m -8,3 C -8,0 C 15,8 km/h (3 Bft) 0,00 %
06.02.2015 07:00 -3,6 C 69 % 1018,9 hPa 0,0 l/m 18,0 km/h (3 Bft) O-SO 106 0 min 0,000 mm 0,0 UV-I 0 W/m -8,4 C -13,2 C 19,8 km/h (3 Bft) 0,00 %
06.02.2015 07:15 -3,6 C 69 % 1018,9 hPa 0,0 l/m 4,7 km/h (1 Bft) O 79 0 min 0,000 mm 0,0 UV-I 0 W/m -8,4 C -3,6 C 11,9 km/h (2 Bft) 0,00 %
06.02.2015 07:30 -3,6 C 69 % 1019,4 hPa 0,0 l/m 9,7 km/h (2 Bft) O 92 0 min 0,000 mm 0,0 UV-I 0 W/m -8,4 C -7,1 C 15,8 km/h (3 Bft) 0,00 %
06.02.2015 07:45 -3,5 C 67 % 1019,2 hPa 0,0 l/m 7,9 km/h (2 Bft) O-NO 60 0 min 0,000 mm 0,0 UV-I 0 W/m -8,7 C -5,2 C 11,9 km/h (2 Bft) 0,00 %
06.02.2015 08:00 -3,5 C 68 % 1019,4 hPa 0,0 l/m 11,9 km/h (2 Bft) O-NO 78 0 min 0,000 mm 0,0 UV-I 1 W/m -8,5 C -9,0 C 15,8 km/h (3 Bft) 0,00 %
06.02.2015 08:15 -3,5 C 66 % 1019,9 hPa 0,0 l/m 15,8 km/h (3 Bft) O 96 0 min 0,000 mm 0,0 UV-I 9 W/m -8,9 C -11,7 C 19,8 km/h (3 Bft) 0,00 %
06.02.2015 08:30 -3,5 C 66 % 1020,0 hPa 0,0 l/m 14,0 km/h (3 Bft) O 90 0 min 0,000 mm 0,0 UV-I 19 W/m -8,9 C -10,5 C 19,8 km/h (3 Bft) 0,00 %
06.02.2015 08:45 -3,5 C 66 % 1020,0 hPa 0,0 l/m 4,0 km/h (1 Bft) O-SO 123 0 min 0,000 mm 0,0 UV-I 27 W/m -8,9 C -3,5 C 7,9 km/h (2 Bft) 0,00 %
06.02.2015 09:00 -3,5 C 67 % 1020,4 hPa 0,0 l/m 6,5 km/h (2 Bft) O 101 0 min 0,000 mm 0,0 UV-I 20 W/m -8,7 C -3,6 C 15,8 km/h (3 Bft) 0,00 %
06.02.2015 09:15 -3,6 C 67 % 1020,3 hPa 0,0 l/m 16,6 km/h (3 Bft) O 84 0 min 0,000 mm 0,0 UV-I 19 W/m -8,8 C -12,4 C 19,8 km/h (3 Bft) 0,00 %
06.02.2015 09:30 -3,7 C 68 % 1020,3 hPa 0,0 l/m 14,0 km/h (3 Bft) O 100 0 min 0,000 mm 0,0 UV-I 22 W/m -8,7 C -10,8 C 19,8 km/h (3 Bft) 0,00 %
06.02.2015 09:45 -3,7 C 69 % 1020,5 hPa 0,0 l/m 9,0 km/h (2 Bft) SO 129 0 min 0,000 mm 1,0 UV-I 26 W/m -8,5 C -6,6 C 11,9 km/h (2 Bft) 0,00 %
06.02.2015 10:00 -3,7 C 68 % 1020,6 hPa 0,0 l/m 5,4 km/h (1 Bft) O-SO 121 15 min 0,000 mm 1,0 UV-I 199 W/m -8,7 C -3,7 C 7,9 km/h (2 Bft) 0,00 %
06.02.2015 10:15 -3,6 C 68 % 1020,9 hPa 0,0 l/m 9,0 km/h (2 Bft) O-SO 112 0 min 0,000 mm 1,0 UV-I 74 W/m -8,6 C -6,5 C 15,8 km/h (3 Bft) 0,00 %
06.02.2015 10:30 -3,4 C 67 % 1020,8 hPa 0,0 l/m 13,0 km/h (3 Bft) O 80 0 min 0,000 mm 1,0 UV-I 106 W/m -8,6 C -9,7 C 15,8 km/h (3 Bft) 0,00 %
06.02.2015 10:45 -3,3 C 66 % 1021,0 hPa 0,0 l/m 5,4 km/h (1 Bft) O 92 0 min 0,000 mm 1,0 UV-I 103 W/m -8,7 C -3,3 C 7,9 km/h (2 Bft) 0,00 %
06.02.2015 11:00 -3,3 C 65 % 1021,1 hPa 0,0 l/m 6,8 km/h (2 Bft) O-SO 105 0 min 0,000 mm 1,0 UV-I 92 W/m -8,9 C -3,7 C 11,9 km/h (2 Bft) 0,00 %
06.02.2015 11:15 -3,3 C 62 % 1021,0 hPa 0,0 l/m 14,4 km/h (3 Bft) O 95 0 min 0,000 mm 1,0 UV-I 84 W/m -9,5 C -10,6 C 19,8 km/h (3 Bft) 0,00 %
06.02.2015 11:30 -3,1 C 61 % 1020,8 hPa 0,0 l/m 9,4 km/h (2 Bft) O-SO 110 0 min 0,000 mm 1,0 UV-I 100 W/m -9,5 C -6,3 C 15,8 km/h (3 Bft) 0,00 %
06.02.2015 11:45 -3,0 C 60 % 1020,7 hPa 0,0 l/m 15,5 km/h (3 Bft) O 95 0 min 0,000 mm 1,0 UV-I 110 W/m -9,6 C -10,9 C 19,8 km/h (3 Bft) 0,00 %
06.02.2015 12:00 -3,1 C 60 % 1020,7 hPa 0,0 l/m 4,7 km/h (1 Bft) O-SO 106 0 min 0,000 mm 1,0 UV-I 116 W/m -9,7 C -3,1 C 7,9 km/h (2 Bft) 0,00 %
06.02.2015 12:15 -3,0 C 60 % 1020,7 hPa 0,0 l/m 11,9 km/h (2 Bft) O 89 0 min 0,000 mm 1,0 UV-I 120 W/m -9,6 C -8,4 C 15,8 km/h (3 Bft) 0,00 %
06.02.2015 12:30 -3,1 C 59 % 1020,5 hPa 0,0 l/m 11,5 km/h (2 Bft) O-SO 102 15 min 0,000 mm 1,0 UV-I 349 W/m -10,0 C -8,2 C 11,9 km/h (2 Bft) 0,00 %
06.02.2015 12:45 -3,2 C 59 % 1020,9 hPa 0,0 l/m 4,7 km/h (1 Bft) S 172 0 min 0,000 mm 1,0 UV-I 88 W/m -10,0 C -3,2 C 7,9 km/h (2 Bft) 0,00 %
06.02.2015 13:00 -3,2 C 59 % 1020,9 hPa 0,0 l/m 18,0 km/h (3 Bft) O-SO 110 0 min 0,000 mm 1,0 UV-I 85 W/m -10,0 C -12,7 C 24,1 km/h (4 Bft) 0,00 %
06.02.2015 13:15 -3,2 C 59 % 1020,8 hPa 0,0 l/m 9,4 km/h (2 Bft) O-SO 113 0 min 0,000 mm 1,0 UV-I 76 W/m -10,0 C -6,4 C 11,9 km/h (2 Bft) 0,00 %
06.02.2015 13:30 -3,2 C 58 % 1020,9 hPa 0,0 l/m 10,4 km/h (2 Bft) O-SO 106 0 min 0,000 mm 1,0 UV-I 85 W/m -10,3 C -7,3 C 11,9 km/h (2 Bft) 0,00 %
06.02.2015 13:45 -3,0 C 59 % 1020,9 hPa 0,0 l/m 14,0 km/h (3 Bft) O 84 0 min 0,000 mm 1,0 UV-I 127 W/m -9,9 C -9,9 C 15,8 km/h (3 Bft) 0,00 %
06.02.2015 14:00 -2,9 C 59 % 1020,8 hPa 0,0 l/m 14,0 km/h (3 Bft) O-SO 113 0 min 0,000 mm 2,0 UV-I 158 W/m -9,8 C -9,8 C 19,8 km/h (3 Bft) 0,00 %
06.02.2015 14:15 -2,8 C 60 % 1021,0 hPa 0,0 l/m 1,4 km/h (1 Bft) SO 146 0 min 0,000 mm 1,0 UV-I 134 W/m -9,5 C -2,8 C 4,0 km/h (1 Bft) 0,00 %
06.02.2015 14:30 -2,8 C 59 % 1021,1 hPa 0,0 l/m 1,8 km/h (1 Bft) O 92 0 min 0,000 mm 1,0 UV-I 101 W/m -9,7 C -2,8 C 4,0 km/h (1 Bft) 0,00 %
06.02.2015 14:45 -2,9 C 59 % 1021,2 hPa 0,0 l/m 13,3 km/h (3 Bft) O-SO 109 0 min 0,000 mm 1,0 UV-I 99 W/m -9,8 C -9,3 C 19,8 km/h (3 Bft) 0,00 %
06.02.2015 15:00 -2,9 C 59 % 1021,1 hPa 0,0 l/m 0,4 km/h (0 Bft) O-SO 105 0 min 0,000 mm 1,0 UV-I 91 W/m -9,8 C -2,9 C 4,0 km/h (1 Bft) 0,00 %
06.02.2015 15:15 -2,8 C 59 % 1021,4 hPa 0,0 l/m 2,9 km/h (1 Bft) O 100 0 min 0,000 mm 1,0 UV-I 94 W/m -9,7 C -2,8 C 4,0 km/h (1 Bft) 0,00 %
06.02.2015 15:30 -2,8 C 59 % 1021,4 hPa 0,0 l/m 0,4 km/h (0 Bft) S 174 0 min 0,000 mm 1,0 UV-I 92 W/m -9,7 C -2,8 C 4,0 km/h (1 Bft) 0,00 %
06.02.2015 15:45 -2,8 C 59 % 1021,4 hPa 0,0 l/m 1,8 km/h (1 Bft) O-SO 122 0 min 0,000 mm 1,0 UV-I 66 W/m -9,7 C -2,8 C 4,0 km/h (1 Bft) 0,00 %
06.02.2015 16:00 -2,9 C 59 % 1021,6 hPa 0,0 l/m 0,4 km/h (0 Bft) O-SO 107 0 min 0,000 mm 1,0 UV-I 52 W/m -9,8 C -2,9 C 4,0 km/h (1 Bft) 0,00 %
06.02.2015 16:15 -3,0 C 59 % 1021,9 hPa 0,0 l/m 1,8 km/h (1 Bft) S-SO 147 0 min 0,000 mm 0,0 UV-I 32 W/m -9,9 C -3,0 C 4,0 km/h (1 Bft) 0,00 %
06.02.2015 16:30 -3,1 C 58 % 1021,9 hPa 0,0 l/m 0,7 km/h (0 Bft) SO 132 0 min 0,000 mm 0,0 UV-I 24 W/m -10,2 C -3,1 C 4,0 km/h (1 Bft) 0,00 %
06.02.2015 16:45 -3,2 C 58 % 1021,9 hPa 0,0 l/m 1,8 km/h (1 Bft) O 98 0 min 0,000 mm 0,0 UV-I 8 W/m -10,3 C -3,2 C 4,0 km/h (1 Bft) 0,00 %
06.02.2015 17:00 -3,4 C 59 % 1022,2 hPa 0,0 l/m 0,0 km/h (0 Bft) S-SW 196 0 min 0,000 mm 0,0 UV-I 4 W/m -10,2 C -3,4 C 0,0 km/h (0 Bft) 0,00 %
06.02.2015 17:15 -3,8 C 60 % 1022,3 hPa 0,0 l/m 0,0 km/h (0 Bft) S 174 0 min 0,000 mm 0,0 UV-I 0 W/m -10,4 C -3,8 C 0,0 km/h (0 Bft) 0,00 %
06.02.2015 17:30 -3,8 C 59 % 1022,4 hPa 0,0 l/m 0,0 km/h (0 Bft) O-SO 103 0 min 0,000 mm 0,0 UV-I 0 W/m -10,6 C -3,8 C 0,0 km/h (0 Bft) 0,00 %
06.02.2015 17:45 -3,9 C 59 % 1022,7 hPa 0,0 l/m 0,0 km/h (0 Bft) S-SW 208 0 min 0,000 mm 0,0 UV-I 0 W/m -10,7 C -3,9 C 0,0 km/h (0 Bft) 0,00 %
06.02.2015 18:00 -3,7 C 60 % 1022,8 hPa 0,0 l/m 0,0 km/h (0 Bft) W-SW 255 0 min 0,000 mm 0,0 UV-I 0 W/m -10,3 C -3,7 C 0,0 km/h (0 Bft) 0,00 %
06.02.2015 18:15 -3,5 C 58 % 1022,8 hPa 0,0 l/m 0,0 km/h (0 Bft) SO 134 0 min 0,000 mm 0,0 UV-I 0 W/m -10,5 C -3,5 C 0,0 km/h (0 Bft) 0,00 %
06.02.2015 18:30 -3,5 C 59 % 1022,8 hPa 0,0 l/m 0,0 km/h (0 Bft) S 183 0 min 0,000 mm 0,0 UV-I 0 W/m -10,3 C -3,5 C 0,0 km/h (0 Bft) 0,00 %
06.02.2015 18:45 -3,7 C 58 % 1023,2 hPa 0,0 l/m 0,0 km/h (0 Bft) SO 145 0 min 0,000 mm 0,0 UV-I 0 W/m -10,7 C -3,7 C 0,0 km/h (0 Bft) 0,00 %
06.02.2015 19:00 -3,5 C 57 % 1023,2 hPa 0,0 l/m 0,7 km/h (0 Bft) SO 124 0 min 0,000 mm 0,0 UV-I 0 W/m -10,8 C -3,5 C 4,0 km/h (1 Bft) 0,00 %
06.02.2015 19:15 -3,4 C 57 % 1023,3 hPa 0,0 l/m 0,0 km/h (0 Bft) O-NO 57 0 min 0,000 mm 0,0 UV-I 0 W/m -10,7 C -3,4 C 0,0 km/h (0 Bft) 0,00 %
06.02.2015 19:30 -3,7 C 61 % 1023,7 hPa 0,0 l/m 0,4 km/h (0 Bft) NW 317 0 min 0,000 mm 0,0 UV-I 0 W/m -10,1 C -3,7 C 4,0 km/h (1 Bft) 0,00 %
06.02.2015 19:45 -4,0 C 62 % 1023,5 hPa 0,0 l/m 0,0 km/h (0 Bft) N-NO 33 0 min 0,000 mm 0,0 UV-I 0 W/m -10,2 C -4,0 C 0,0 km/h (0 Bft) 0,00 %
06.02.2015 20:00 -4,2 C 64 % 1024,0 hPa 0,0 l/m 0,0 km/h (0 Bft) N 351 0 min 0,000 mm 0,0 UV-I 0 W/m -10,0 C -4,2 C 0,0 km/h (0 Bft) 0,00 %
06.02.2015 20:15 -4,2 C 64 % 1024,0 hPa 0,0 l/m 0,0 km/h (0 Bft) N 356 0 min 0,000 mm 0,0 UV-I 0 W/m -10,0 C -4,2 C 0,0 km/h (0 Bft) 0,00 %
06.02.2015 20:30 -4,2 C 65 % 1024,1 hPa 0,0 l/m 0,0 km/h (0 Bft) S 191 0 min 0,000 mm 0,0 UV-I 0 W/m -9,8 C -4,2 C 0,0 km/h (0 Bft) 0,00 %
06.02.2015 20:45 -4,2 C 66 % 1024,4 hPa 0,0 l/m 0,0 km/h (0 Bft) S 170 0 min 0,000 mm 0,0 UV-I 0 W/m -9,6 C -4,2 C 0,0 km/h (0 Bft) 0,00 %
06.02.2015 21:00 -4,0 C 65 % 1024,5 hPa 0,0 l/m 0,4 km/h (0 Bft) O-NO 64 0 min 0,000 mm 0,0 UV-I 0 W/m -9,6 C -4,0 C 4,0 km/h (1 Bft) 0,00 %
06.02.2015 21:15 -3,9 C 64 % 1024,4 hPa 0,0 l/m 0,0 km/h (0 Bft) O 79 0 min 0,000 mm 0,0 UV-I 0 W/m -9,7 C -3,9 C 0,0 km/h (0 Bft) 0,00 %
06.02.2015 21:30 -3,7 C 62 % 1024,4 hPa 0,0 l/m 0,4 km/h (0 Bft) W-SW 256 0 min 0,000 mm 0,0 UV-I 0 W/m -9,9 C -3,7 C 4,0 km/h (1 Bft) 0,00 %
06.02.2015 21:45 -3,7 C 60 % 1024,2 hPa 0,0 l/m 0,0 km/h (0 Bft) NO 52 0 min 0,000 mm 0,0 UV-I 0 W/m -10,3 C -3,7 C 0,0 km/h (0 Bft) 0,00 %
06.02.2015 22:00 -3,7 C 59 % 1024,3 hPa 0,0 l/m 1,4 km/h (1 Bft) O-SO 118 0 min 0,000 mm 0,0 UV-I 0 W/m -10,5 C -3,7 C 4,0 km/h (1 Bft) 0,00 %
06.02.2015 22:15 -3,7 C 59 % 1024,5 hPa 0,0 l/m 4,0 km/h (1 Bft) O-SO 110 0 min 0,000 mm 0,0 UV-I 0 W/m -10,5 C -3,7 C 7,9 km/h (2 Bft) 0,00 %
06.02.2015 22:30 -3,6 C 59 % 1024,6 hPa 0,0 l/m 2,9 km/h (1 Bft) O-NO 60 0 min 0,000 mm 0,0 UV-I 0 W/m -10,4 C -3,6 C 4,0 km/h (1 Bft) 0,00 %
06.02.2015 22:45 -3,6 C 59 % 1024,5 hPa 0,0 l/m 2,2 km/h (1 Bft) O 79 0 min 0,000 mm 0,0 UV-I 0 W/m -10,4 C -3,6 C 4,0 km/h (1 Bft) 0,00 %
06.02.2015 23:00 -3,6 C 57 % 1024,5 hPa 0,0 l/m 4,7 km/h (1 Bft) O 87 0 min 0,000 mm 0,0 UV-I 0 W/m -10,9 C -3,6 C 7,9 km/h (2 Bft) 0,00 %
06.02.2015 23:15 -3,6 C 55 % 1024,6 hPa 0,0 l/m 6,8 km/h (2 Bft) O 80 0 min 0,000 mm 0,0 UV-I 0 W/m -11,3 C -4,0 C 7,9 km/h (2 Bft) 0,00 %
06.02.2015 23:30 -3,6 C 54 % 1024,9 hPa 0,0 l/m 2,9 km/h (1 Bft) O 93 0 min 0,000 mm 0,0 UV-I 0 W/m -11,5 C -3,6 C 4,0 km/h (1 Bft) 0,00 %
06.02.2015 23:45 -3,6 C 53 % 1025,1 hPa 0,0 l/m 0,0 km/h (0 Bft) O-NO 62 0 min 0,000 mm 0,0 UV-I 0 W/m -11,8 C -3,6 C 0,0 km/h (0 Bft) 0,00 %
_ Min-Zeit 03:30 23:45 05:00 - 17:00 - - - - - - 23:45 01:00 17:00 00:00
Minimum _ -4,2 C 53 % 1018,3 hPa - 0,0 km/h (0 Bft) - - - - - - -11,8 C -16,9 C 0,0 km/h (0 Bft) 0,00 %
_ Max-Zeit 00:00 06:45 23:45 00:00 01:00 - - 10:00 00:00 14:00 12:30 00:00 14:15 00:00 00:00
Maximum _ -2,4 C 69 % 1025,1 hPa 0,0 l/m 28,4 km/h
O (4 Bft)
- - 15 min 0,000 mm 2,0 UV-I 349 W/m -8,3 C -2,8 C 32,0 km/h
O-SO (5 Bft)
0,00 %
Durchschnitt _ -3,4 C 62 % 1021,0 hPa #0,0 l/m 7,8 km/h (2 Bft) O - #30 min. #0,000 mm 1,0 UV-I 81 W/m -9,6 C -6,6 C 11,0 km/h (2 Bft) 0,00 %